Preview of NWS' New Version of Forecast
This preview is not operational and should not be used for support decisions.

Regional Weather Roundup (RWR)

Issued by National Weather Service (NWS)

                            
000
ASUS45 KABQ 220810
RWRNM 
NEW MEXICO REGIONAL WEATHER ROUNDUP
NATIONAL WEATHER SERVICE ALBUQUERQUE NM
100 AM MST FRI FEB 22 2019

NOTE: "FAIR" MEANS FEW OR NO CLOUDS BELOW 12,000 FEET AGL WITH NO
       SIGNIFICANT WEATHER OR OBSTRUCTIONS TO VISION.

      THIS PRODUCT IS RELEASED AS TWO VERSIONS.  ONE VERSION NEAR
      THE TOP OF THE HOUR CONTAINING PRELIMINARY DATA FROM ALBUQUERQUE
      AND OTHER STATIONS.  A FINAL VERSION WITH ADDITIONAL DATA IS 
      ISSUED ABOUT 10 MINUTES AFTER THE HOUR.
 
NMZ501-503-504-510>518-220900-
NORTHWEST PLATEAU/NORTHCENTRAL MOUNTAINS
  
CITY           SKY/WX    TMP DP  RH WIND       PRES   REMARKS
FARMINGTON     LGT SNOW  31  30  96 W3        29.69R VSB 1            
LOS ALAMOS     CLOUDY    32  11  41 S8        29.76S WCI  25          
SANTA FE       MOCLDY    34  10  37 SE10      29.76R WCI  26          
TAOS           FAIR      29  13  51 S10       29.78R WCI  20          
ANGEL FIRE       N/A     15   9  77 N5        29.79F WCI   8          

$$
NMZ402-403-502-505>509-220900-
WESTCENTRAL MOUNTAINS/SOUTHWEST MOUNTAINS
  
CITY           SKY/WX    TMP DP  RH WIND       PRES   REMARKS
GALLUP         LGT SNOW  26  25  96 CALM      29.68R VSB 3/4          
GRANTS         CLOUDY    32  21  65 SE12      29.71R WCI  23          
SILVER CITY    CLOUDY    40  24  51 SW22      29.81S WCI  31          

$$
NMZ407-409-411-412-220900-
SOUTHERN DESERTS
  
CITY           SKY/WX    TMP DP  RH WIND       PRES   REMARKS
DEMING         CLOUDY    45  22  40 S10       29.81S                  
LAS CRUCES     FAIR      47  23  38 SW18G25   29.83S                  
ALAMOGORDO     FAIR      43  10  26 MISG      29.84R                  
T OR C         CLOUDY    44  22  41 S13       29.77S                  

$$
NMZ519>523-220900-
CENTRAL VALLEYS/CENTRAL HIGHLANDS
  
CITY           SKY/WX    TMP DP  RH WIND       PRES   REMARKS
ALBUQUERQUE    FAIR      40  15  36 S20       29.75S WCI  30          
DOUBLE EAGLE   FAIR      35  15  44 S12       29.75S WCI  26          
MORIARTY ARPT  FAIR      32  12  43 SE10      29.81S WCI  24          
CLINES CORNERS FAIR      32  10  40 S16       29.81S WCI  21          
BELEN          FAIR      40  15  36 S13       29.76S WCI  32          
SOCORRO        MOCLDY    39  16  38 SE5       29.78R                  

$$
NMZ524>526-539-540-220900-
SOUTHCENTRAL MOUNTAINS
  
CITY           SKY/WX    TMP DP  RH WIND       PRES   REMARKS
RUIDOSO        NOT AVBL                                               

$$
NMZ527>531-220900-
NORTHEAST HIGHLANDS/NORTHEAST PLAINS
  
CITY           SKY/WX    TMP DP  RH WIND       PRES   REMARKS
LAS VEGAS      CLOUDY    34   9  35 S16       29.80R WCI  24          
RATON          CLOUDY    32  16  51 VRB3      29.78S                  
CLAYTON        FAIR      28  23  81 CALM      29.84F                  

$$
NMZ532>537-220900-
EASTCENTRAL PLAINS
  
CITY           SKY/WX    TMP DP  RH WIND       PRES   REMARKS
SANTA ROSA     CLOUDY    38  12  34 SE5       29.80R WCI  35          
TUCUMCARI      CLOUDY    43  29  57 SE12      29.81S                  
CANNON AFB     MOCLDY    38  26  62 SE14      29.85S WCI  29          
CLOVIS AIRPORT FAIR      36  22  56 E14       29.86S WCI  27          

$$
NMZ028-029-538-220900-
SOUTHEAST PLAINS
  
CITY           SKY/WX    TMP DP  RH WIND       PRES   REMARKS
ROSWELL        FAIR      40  29  64 S10       29.77S WCI  33          
ARTESIA        FAIR      39  27  60 S9        29.79S WCI  33          
CARLSBAD       FAIR      34  22  61 SW3       29.79R                  
HOBBS          FAIR      36  30  80 E8        29.83S WCI  29          


$$